Погода в Монастире

Тунис     35°44′43″N   10°45′21″E
темп.,
°C
ветер,
м/с
пор.,
м/с
влажн.,
%
обл.,
%
осадки,
мм/ч
давл.,
гПа
погр.,
м
26 сентября, вс
вс2601:00+26ююв5782100 0.0 1019351
04:00+25ю588495 0.0 1018374
07:00+25ююв4781100 0.0 1019426
10:00+29ююв676199 0.0 1020492
13:00+31юв5648100 0.0 1018704
16:00+30юв8852100 0.0 1017703
19:00+27ююв7865100 0.0 1018370
22:00+26ююв576987 0.0 1019272
27 сентября, пн
пн2701:00+25ю577282 0.0 1018266
04:00+25ююз45715 0.0 1017251
07:00+25ю34697 0.0 1018179
10:00+28юв015441 0.0 1019411
13:00+28св535758 0.0 1018489
16:00+28в5562100 0.0 1017336
19:00+26всв457097 0.0 1018365
22:00+26св357687 0.0 1019520
28 сентября, вт
вт2801:00+25с6667100 0.0 1019480
04:00+25ссз896750 0.0 1018618
07:00+24ссз7965100 0.0 1019676
10:00+26ссз7854100 0.0 1019841
13:00+27ссв46485 0.0 1018831
16:00+27св56555 0.0 1017581
19:00+26св67635 0.0 1018571
22:00+25с56621 0.0 1020537
29 сентября, ср
ср2901:00+24ссз68582 0.0 1019500
04:00+24ссз610564 0.0 1019611
07:00+24сз710600 0.0 1020651
10:00+25ссз911558 0.0 1021950
13:00+28с79460 0.0 10191174
16:00+28ссв810520 0.0 10191034
19:00+26ссз1012540 0.0 1020987
22:00+24ссз1012620 0.0 1021765
30 сентября, чт
чт3001:00+23ссз911670 0.0 1021743
04:00+22сз913681 0.0 1020850
07:00+22сз912680 0.0 10211161
10:00+24ссз911530 0.0 10211473
13:00+27ссз710450 0.0 10201686
16:00+27ссз810462 0.0 10181551
19:00+25с911540 0.0 10191184
22:00+23ссз910600 0.0 1020908